CW8081 Thessaloniki GR current weather conditions

sailwx.info

Wind from 226

Air temperature 17.8° C
Dewpoint 9.4° C

Last reported at 2017-Feb-23 15:46 UTC.
Time now 2017-Feb-23 16:08 UTC

Location: N 40°34' E 022°58'.
View on Google Maps.

See reports from other nearby stations

  
Tides and Currents Weather Stations Pressure Air Temp Water Temp Dewpoint Dewpoint Depression Visibility Wind Speed Wind Dir Waves Ship Positions
date/time (UTC)wind fromknots sea level pressurealtimeterstation pressurevisibilityair tempwater tempwave heightnotes
2017-Feb-23 15:46 226 17.8
2017-Feb-23 15:41 226 17.8
2017-Feb-23 15:36 226 17.8
2017-Feb-23 15:31 226 17.8
2017-Feb-23 15:16 226 17.8
2017-Feb-23 14:46 217 2 gusting 5 17.8
2017-Feb-23 14:41 218 1 gusting 4 17.8
2017-Feb-23 14:36 218 3 gusting 6 17.8
2017-Feb-23 14:16 223 1 gusting 2 18.3
2017-Feb-23 14:11 223 3 gusting 5 18.3
2017-Feb-23 14:06 217 3 gusting 5 18.3
2017-Feb-23 14:01 215 1 gusting 5 17.8
2017-Feb-23 13:46 213 3 gusting 5 18.3
2017-Feb-23 13:31 208 18.3
2017-Feb-23 13:16 230 4 gusting 6 18.3
2017-Feb-23 13:11 210 4 gusting 6 18.9
2017-Feb-23 13:06 247 3 gusting 6 18.9
2017-Feb-23 13:01 215 4 gusting 6 18.9
2017-Feb-23 12:46 270 1 gusting 4 17.2
2017-Feb-23 12:41 270 2 gusting 5 17.2
2017-Feb-23 12:36 243 4 gusting 6 17.2
2017-Feb-23 12:16 224 4 gusting 6 17.2
2017-Feb-23 12:01 246 4 gusting 7 16.7
2017-Feb-23 11:46 250 5 gusting 7 17.2
2017-Feb-23 11:41 207 6 gusting 7 17.8
2017-Feb-23 11:36 241 4 gusting 6 17.2
2017-Feb-23 11:31 259 4 gusting 6 17.2
2017-Feb-23 11:11 240 2 gusting 6 15.6
2017-Feb-23 11:01 259 3 gusting 6 15.0
2017-Feb-23 10:46 197 4 gusting 6 15.6
2017-Feb-23 10:41 219 5 gusting 6 15.6
2017-Feb-23 10:36 202 4 gusting 6 15.0
2017-Feb-23 10:06 218 5 gusting 6 13.9
2017-Feb-23 09:46 193 5 gusting 7 14.4
2017-Feb-23 09:36 240 1 gusting 5 14.4
2017-Feb-23 09:31 219 5 gusting 8 14.4
2017-Feb-23 09:11 355 15.0
2017-Feb-23 09:06 15.0
2017-Feb-23 09:01 257 14.4
2017-Feb-23 08:46 327 0 gusting 5 13.3
2017-Feb-23 08:41 226 13.3
2017-Feb-23 08:36 221 0 gusting 4 13.3
2017-Feb-23 08:31 221 2 gusting 6 12.8
2017-Feb-23 08:11 224 0 gusting 4 12.8
2017-Feb-23 08:06 218 12.8
2017-Feb-23 07:46 161 11.7
2017-Feb-23 07:41 161 11.1
2017-Feb-23 07:36 132 11.1
2017-Feb-23 07:31 132 10.6
2017-Feb-23 07:16 128 9.4
2017-Feb-23 07:01 057 8.3
2017-Feb-23 06:46 057 7.8
2017-Feb-23 06:41 057 7.2
2017-Feb-23 06:36 057 7.2
2017-Feb-23 06:11 056 6.7
2017-Feb-23 06:01 056 6.1
2017-Feb-23 05:41 056 6.1
2017-Feb-23 05:31 057 6.1
2017-Feb-23 05:11 057 6.1
2017-Feb-23 05:06 057 6.1
2017-Feb-23 05:01 057 6.1
2017-Feb-23 04:46 057 6.1
2017-Feb-23 04:41 057 6.1
2017-Feb-23 04:36 057 6.1
2017-Feb-23 04:31 057 6.1
2017-Feb-23 04:11 057 6.1
2017-Feb-23 04:06 057 6.1
2017-Feb-23 04:01 057 6.1
2017-Feb-23 03:41 057 6.1
2017-Feb-23 03:36 057 6.1
2017-Feb-23 03:31 057 6.1
2017-Feb-23 03:16 058 6.7
2017-Feb-23 03:11 058 6.7
2017-Feb-23 03:06 058 6.7
2017-Feb-23 03:01 058 6.7
2017-Feb-23 02:36 057 6.7
2017-Feb-23 02:31 057 7.2
2017-Feb-23 02:11 057 7.2
2017-Feb-23 02:01 057 7.2
2017-Feb-23 01:31 057 7.8
2017-Feb-23 01:16 057 7.8
2017-Feb-23 01:11 057 8.3
2017-Feb-23 01:06 057 8.3
2017-Feb-23 01:01 057 8.3
2017-Feb-23 00:46 057 8.3
2017-Feb-23 00:31 057 8.9
2017-Feb-23 00:16 057 8.9
2017-Feb-23 00:11 057 8.9
2017-Feb-23 00:01 057 9.4
2017-Feb-22 23:41 057 9.4
2017-Feb-22 23:11 057 10.0
2017-Feb-22 22:46 057 10.0
2017-Feb-22 22:41 057 10.0
2017-Feb-22 22:36 057 10.0
2017-Feb-22 22:31 057 10.0
2017-Feb-22 22:11 068 9.4
2017-Feb-22 22:06 113 10.0
2017-Feb-22 21:46 186 10.0
2017-Feb-22 21:41 186 10.0
2017-Feb-22 21:16 164 10.0
2017-Feb-22 21:06 112 10.0
2017-Feb-22 21:01 112 10.0
2017-Feb-22 20:46 112 10.6
2017-Feb-22 20:36 111 10.6
2017-Feb-22 20:31 111 10.6
2017-Feb-22 20:16 111 11.1
2017-Feb-22 20:11 111 11.1
2017-Feb-22 20:06 111 11.1
2017-Feb-22 19:41 111 11.1
2017-Feb-22 19:31 111 11.7
2017-Feb-22 19:16 112 11.7
2017-Feb-22 19:11 112 11.7
2017-Feb-22 19:06 112 12.2
2017-Feb-22 19:01 112 12.2
2017-Feb-22 18:41 112 12.8
2017-Feb-22 18:36 112 12.8
2017-Feb-22 18:31 112 12.8
2017-Feb-22 18:16 112 13.3
2017-Feb-22 18:11 112 13.3
2017-Feb-22 18:06 111 13.3
2017-Feb-22 17:46 110 13.9
2017-Feb-22 17:41 110 13.9
2017-Feb-22 17:36 110 13.9
2017-Feb-22 17:16 229 14.4
2017-Feb-22 17:11 229 15.0
2017-Feb-22 17:06 229 15.0
2017-Feb-22 17:01 229 15.0
2017-Feb-22 16:46 234 15.6
2017-Feb-22 16:41 234 16.1
2017-Feb-22 16:36 234 16.1
2017-Feb-22 16:16 234 17.2
2017-Feb-22 16:06 234 17.2
2017-Feb-22 16:01 234 17.2
2017-Feb-22 15:16 234 17.8
2017-Feb-22 15:06 234 17.8
2017-Feb-22 15:01 234 17.8
2017-Feb-22 14:46 234 2 gusting 5 17.8
2017-Feb-22 14:41 237 2 gusting 5 17.8
2017-Feb-22 14:36 227 2 gusting 5 17.8
2017-Feb-22 14:31 227 2 gusting 5 17.8
2017-Feb-22 14:16 224 4 gusting 5 18.3
2017-Feb-22 14:06 252 3 gusting 5 18.3
2017-Feb-22 14:01 229 3 gusting 5 18.9
2017-Feb-22 13:41 243 2 gusting 4 18.9
2017-Feb-22 13:36 238 1 gusting 4 18.9
2017-Feb-22 13:31 238 1 gusting 4 18.3
2017-Feb-22 13:16 247 2 gusting 4 18.3
2017-Feb-22 13:06 236 0 gusting 5 17.8
2017-Feb-22 12:46 252 3 gusting 6 17.2
2017-Feb-22 12:41 260 3 gusting 6 17.2
2017-Feb-22 12:31 287 2 gusting 5 17.2
2017-Feb-22 12:11 203 1 gusting 5 16.1
2017-Feb-22 12:06 234 3 gusting 5 16.1
2017-Feb-22 12:01 217 4 gusting 6 16.1
2017-Feb-22 11:36 216 4 gusting 6 15.6
2017-Feb-22 11:31 270 2 gusting 6 15.6
2017-Feb-22 11:06 217 5 gusting 6 15.0
2017-Feb-22 10:46 235 1 gusting 4 13.9
2017-Feb-22 10:41 236 13.3
2017-Feb-22 10:16 213 4 gusting 6 13.3
2017-Feb-22 10:11 214 2 gusting 5 13.3
2017-Feb-22 10:01 219 1 gusting 6 12.8
2017-Feb-22 09:16 221 2 gusting 7 11.7
2017-Feb-22 09:06 273 5 gusting 7 11.7
2017-Feb-22 09:01 260 3 gusting 5 11.1
2017-Feb-22 08:46 239 9.4
2017-Feb-22 08:36 264 2 gusting 5 8.9
2017-Feb-22 08:16 271 4 gusting 7 8.3
2017-Feb-22 08:11 259 4 gusting 6 8.3
2017-Feb-22 07:46 200 8.3
2017-Feb-22 07:16 223 2 gusting 4 6.7
2017-Feb-22 07:11 209 2 gusting 5 6.7
2017-Feb-22 07:01 197 6.1
2017-Feb-22 06:46 197 5.6
2017-Feb-22 06:41 197 5.6
2017-Feb-22 06:36 197 5.6
2017-Feb-22 06:11 198 5.0
2017-Feb-22 06:06 298 5.0
2017-Feb-22 05:36 328 4.4
2017-Feb-22 05:31 328 4.4
2017-Feb-22 05:16 328 4.4
2017-Feb-22 05:06 328 3.9
2017-Feb-22 05:01 328 3.9
2017-Feb-22 04:41 327 4.4
2017-Feb-22 04:36 305 4.4
2017-Feb-22 04:31 305 4.4
2017-Feb-22 04:16 305 4.4
2017-Feb-22 04:11 305 4.4
2017-Feb-22 04:06 305 4.4
2017-Feb-22 04:01 305 4.4
2017-Feb-22 03:46 305 4.4
2017-Feb-22 03:36 305 4.4
2017-Feb-22 03:31 305 4.4
2017-Feb-22 03:16 305 4.4
2017-Feb-22 03:06 305 5.0
2017-Feb-22 03:01 305 5.0
2017-Feb-22 02:46 305 5.0
2017-Feb-22 02:41 305 5.0
2017-Feb-22 02:31 304 5.6
2017-Feb-22 02:16 304 5.6
2017-Feb-22 02:11 304 5.6
2017-Feb-22 02:06 304 5.6
2017-Feb-22 02:01 304 5.6
2017-Feb-22 01:46 304 5.6
2017-Feb-22 01:41 304 5.6
2017-Feb-22 01:36 304 6.1
2017-Feb-22 01:16 304 6.1
2017-Feb-22 01:01 304 6.7
2017-Feb-22 00:46 304 6.7
2017-Feb-22 00:41 304 6.7
2017-Feb-22 00:36 304 6.7
2017-Feb-22 00:31 304 6.7
2017-Feb-22 00:16 304 6.7
2017-Feb-22 00:06 304 6.7
2017-Feb-21 23:46 304 6.7
2017-Feb-21 23:41 304 6.1
2017-Feb-21 23:36 294 6.1
2017-Feb-21 23:31 293 6.1
2017-Feb-21 23:16 286 6.1
2017-Feb-21 23:06 286 6.1
2017-Feb-21 23:01 286 6.1
2017-Feb-21 22:46 286 5.6
2017-Feb-21 22:41 286 5.6
2017-Feb-21 22:36 286 5.6
2017-Feb-21 22:31 286 5.0
2017-Feb-21 22:11 286 5.0
2017-Feb-21 22:01 286 5.0
2017-Feb-21 21:46 286 5.0
2017-Feb-21 21:41 286 5.0
2017-Feb-21 21:36 286 5.0
2017-Feb-21 21:31 286 5.0
2017-Feb-21 21:16 286 5.6
2017-Feb-21 21:11 286 6.1
2017-Feb-21 21:06 286 6.1
2017-Feb-21 21:01 286 6.1
2017-Feb-21 20:46 286 6.7
2017-Feb-21 20:41 286 6.7
2017-Feb-21 20:36 286 6.7
2017-Feb-21 20:31 286 6.7
2017-Feb-21 20:11 286 6.7
2017-Feb-21 20:06 286 6.7
2017-Feb-21 20:01 286 6.7
2017-Feb-21 19:46 286 6.7
2017-Feb-21 19:41 286 6.7
2017-Feb-21 19:36 286 6.7
2017-Feb-21 19:31 286 6.7
2017-Feb-21 19:11 286 6.7
2017-Feb-21 19:06 286 6.7
2017-Feb-21 19:01 248 6.7
2017-Feb-21 18:46 248 7.2
2017-Feb-21 18:41 247 7.2
2017-Feb-21 18:36 247 7.2
2017-Feb-21 18:16 247 7.8
2017-Feb-21 18:11 247 7.8
2017-Feb-21 17:46 246 8.3
2017-Feb-21 17:36 246 8.9
2017-Feb-21 17:31 246 8.9
2017-Feb-21 17:11 246 9.4
2017-Feb-21 17:01 246 9.4
2017-Feb-21 16:41 246 10.6
2017-Feb-21 16:31 246 10.6
2017-Feb-21 16:16 246 11.1
2017-Feb-21 16:06 246 11.7
2017-Feb-21 16:01 246 0 gusting 4 11.7